FW3258 Weather Reports


Display with metric or nautical units.
time (UTC)temp
F
wind
direction
speed
MPH
gust
MPH
rain 1hr
in
rain 24hr
in
rain mn
in
humidity
%
barometer
mb
20260831151514 65 67 0.0 0.0 0.00 0.36 0.16 99 1022.9
20260831150529 0 0 0.0 0.0 0.01 0.36 0.00 100
20260831145515 0 0 0.0 0.0 0.03 0.36 0.00 100
20260831144613 0 0 0.0 0.0 0.04 0.36 0.00 100
20260831143614 0 0 0.0 0.0 0.05 0.36 0.00 100
20260831141624 65 157 0.0 0.0 0.09 0.36 0.16 99 1022.5
20260831140723 65 67 0.0 0.0 0.08 0.35 0.15 99 1022.5
20260831134824 64 258 0.0 0.0 0.05 0.32 0.12 99 1022.5
20260831133824 64 255 0.0 0.0 0.04 0.31 0.11 100 1022.6
20260831132824 64 234 3.0 3.0 0.04 0.31 0.11 100 1022.5
20260831131825 64 202 0.0 0.0 0.00 0.27 0.07 99 1022.5
20260831125926 64 180 0.0 2.0 0.00 0.27 0.07 100 1022.2
20260831124925 64 180 0.0 0.0 0.00 0.27 0.07 100 1022.2
20260831123925 64 180 1.0 2.0 0.00 0.27 0.07 100 1022.3
20260831122926 64 87 1.0 2.0 0.01 0.27 0.07 99 1022.3
20260831121925 64 157 0.0 0.0 0.01 0.27 0.07 99 1022.4
20260831121024 64 157 0.0 0.0 0.01 0.27 0.07 100 1022.8
20260831120025 64 157 0.0 1.0 0.01 0.27 0.07 100 1022.5
20260831115024 64 150 1.0 2.0 0.01 0.27 0.07 100 1022.6
20260831113124 63 180 0.0 1.0 0.00 0.26 0.06 99 1022.6
20260831112125 63 67 0.0 0.0 0.00 0.26 0.06 99 1022.8
20260831110225 63 180 1.0 1.0 0.00 0.26 0.06 99 1022.8
20260831105225 63 180 0.0 0.0 0.00 0.26 0.06 100 1022.8
20260831104227 63 67 1.0 2.0 0.00 0.26 0.06 100 1022.7
20260831103225 63 180 0.0 0.0 0.00 0.26 0.06 100 1022.7
20260831101325 63 180 0.0 0.0 0.00 0.26 0.06 99 1022.8
20260831100325 63 180 0.0 1.0 0.00 0.26 0.06 98 1023.0
20260831095424 63 180 0.0 0.0 0.00 0.26 0.06 99 1022.8
20260831094424 63 180 0.0 1.0 0.00 0.26 0.06 98 1022.7
20260831093427 63 67 1.0 1.0 0.00 0.26 0.06 98 1022.8
20260831092524 63 67 1.0 2.0 0.00 0.26 0.06 99 1022.6
20260831091623 63 157 0.0 1.0 0.00 0.26 0.06 98 1022.8
20260831090641 63 157 0.0 0.0 0.00 0.26 0.06 98 1022.8
20260831085625 63 157 0.0 0.0 0.00 0.26 0.06 98 1023.0
20260831085524 63 157 0.0 0.0 0.00 0.26 0.06 98 1023.0
20260831084525 63 157 0.0 0.0 0.01 0.26 0.06 98 1023.0
20260831082525 64 157 0.0 1.0 0.03 0.26 0.06 99 1023.0
20260831080527 64 180 0.0 0.0 0.04 0.26 0.06 99 1023.3
20260831080441 64 180 0.0 1.0 0.04 0.26 0.06 99 1023.5
20260831075525 64 180 0.0 0.0 0.05 0.26 0.06 98 1023.5
20260831073525 64 157 1.0 2.0 0.04 0.24 0.04 98 1023.5
20260831072423 64 157 0.0 0.0 0.03 0.23 0.03 99 1023.6
20260831071441 64 157 0.0 0.0 0.03 0.23 0.03 98 1023.6
20260831070426 64 157 0.0 0.0 0.02 0.22 0.02 99 1023.7
20260831065523 64 157 0.0 0.0 0.01 0.21 0.01 99 1023.7
20260831064525 64 157 0.0 0.0 0.01 0.21 0.01 99 1023.7
20260831061524 64 157 0.0 0.0 0.00 0.20 0.00 98 1023.8
20260831060524 64 180 0.0 0.0 0.00 0.20 0.00 98 1023.7
20260831055526 64 180 0.0 0.0 0.00 0.20 0.00 99 1023.8
20260831054524 64 180 0.0 0.0 0.00 0.20 0.00 98 1023.9
20260831053525 64 180 0.0 0.0 0.00 0.20 0.00 98 1023.9
20260831052525 64 180 0.0 0.0 0.00 0.20 0.00 98 1023.9
20260831051624 64 180 0.0 0.0 0.00 0.20 0.00 99 1023.9
20260831050625 64 180 1.0 1.0 0.00 0.20 0.00 97 1023.9
20260831045626 64 180 0.0 1.0 0.01 0.20 0.00 97 1024.1
20260831042624 64 180 1.0 1.0 0.02 0.20 0.00 97 1024.0
20260831041723 64 180 0.0 0.0 0.02 0.20 0.00 97 1024.0
20260831040724 64 163 0.0 1.0 0.03 0.20 0.00 97 1024.0
20260831035819 64 157 0.0 0.0 0.04 0.19 0.19 97 1024.0
20260831034818 64 157 0.0 0.0 0.05 0.19 0.19 98 1024.1
20260831033819 64 157 0.0 0.0 0.07 0.19 0.19 97 1024.1
20260831032819 64 225 0.0 0.0 0.08 0.18 0.18 97 1024.2
20260831031820 64 247 0.0 0.0 0.09 0.18 0.18 97 1024.3
20260831030820 64 247 0.0 0.0 0.09 0.17 0.17 97 1024.2
20260831024819 64 157 0.0 0.0 0.08 0.14 0.14 97 1024.3
20260831023820 64 165 0.0 0.0 0.06 0.12 0.12 97 1024.2
20260831022820 64 180 0.0 0.0 0.04 0.10 0.09 97 1024.2
20260831021820 64 180 0.0 0.0 0.03 0.09 0.09 96 1024.4
20260831020818 64 180 0.0 0.0 0.03 0.08 0.08 97 1024.6
20260831015819 64 180 0.0 0.0 0.02 0.07 0.07 97 1024.5
20260831014819 64 180 0.0 0.0 0.01 0.06 0.06 96 1024.3
20260831013818 64 180 0.0 0.0 0.01 0.06 0.06 96 1024.5
20260831012819 64 180 0.0 0.0 0.01 0.06 0.06 96 1024.3
20260831011917 64 157 0.0 0.0 0.01 0.06 0.06 95 1024.3
20260831010936 64 157 0.0 0.0 0.00 0.05 0.05 96 1024.1
20260831005021 64 157 0.0 0.0 0.00 0.05 0.05 96 1024.1
20260831003120 64 157 0.0 0.0 0.00 0.05 0.05 95 1023.8
20260831002218 64 157 0.0 0.0 0.01 0.05 0.05 94 1023.8
20260831001317 64 157 0.0 0.0 0.01 0.05 0.05 94 1023.7
20260830235319 64 157 0.0 0.0 0.02 0.05 0.05 95 1023.6
20260830234318 64 157 0.0 0.0 0.02 0.05 0.05 94 1023.5
20260830233319 64 157 0.0 0.0 0.02 0.05 0.05 94 1023.3
20260830232334 64 157 0.0 0.0 0.01 0.04 0.04 93 1023.3
20260830231418 64 157 0.0 0.0 0.01 0.04 0.04 93 1023.5
20260830230419 65 157 0.0 0.0 0.01 0.04 0.04 92 1023.4
20260830225417 65 157 0.0 0.0 0.00 0.03 0.03 92 1023.4
20260830224436 65 157 0.0 0.0 0.00 0.03 0.03 93 1023.5
20260830223517 65 157 0.0 0.0 0.00 0.03 0.03 92 1023.5
20260830222519 66 157 0.0 0.0 0.00 0.03 0.03 92 1023.7
20260830221617 66 215 0.0 0.0 0.00 0.03 0.03 92 1023.5
20260830220619 66 67 0.0 0.0 0.00 0.03 0.03 91 1023.5
20260830215617 66 67 0.0 0.0 0.00 0.03 0.03 92 1023.5
20260830215518 66 67 0.0 0.0 0.00 0.03 0.03 92 1023.5
20260830214518 66 67 0.0 0.0 0.00 0.03 0.03 91 1023.5
20260830213519 66 67 0.0 2.0 0.00 0.03 0.03 90 1023.5
20260830212519 66 67 0.0 0.0 0.00 0.03 0.03 89 1023.4
20260830211519 67 45 0.0 0.0 0.00 0.03 0.03 87 1023.6
20260830210617 67 45 0.0 1.0 0.00 0.03 0.03 87 1023.7
20260830205617 67 292 0.0 0.0 0.00 0.03 0.03 87 1023.6
20260830204717 67 292 0.0 0.0 0.00 0.03 0.03 86 1023.5
20260830203618 67 292 0.0 0.0 0.00 0.03 0.03 87 1023.7
20260830201618 67 292 0.0 1.0 0.00 0.03 0.03 86 1023.9
20260830200717 68 315 0.0 0.0 0.00 0.03 0.03 84 1023.8
20260830195719 68 45 0.0 1.0 0.00 0.03 0.03 84 1023.8
20260830193719 68 315 3.0 3.0 0.00 0.03 0.03 83 1024.0
20260830192718 68 307 2.0 3.0 0.00 0.03 0.03 85 1023.9
20260830191719 67 247 2.0 3.0 0.00 0.03 0.03 86 1024.0
20260830190817 67 285 3.0 4.0 0.00 0.03 0.03 88 1024.1
20260830184818 66 266 3.0 5.0 0.00 0.03 0.03 92 1024.2
20260830183818 66 292 3.0 4.0 0.00 0.03 0.03 92 1024.4
20260830182819 66 292 0.0 1.0 0.00 0.03 0.03 91 1024.7
20260830182718 66 292 1.0 2.0 0.00 0.03 0.03 92 1024.6
20260830181718 66 300 2.0 4.0 0.00 0.03 0.03 92 1024.6
20260830181619 66 292 3.0 4.0 0.00 0.03 0.03 91 1024.6
20260830180717 66 232 1.0 2.0 0.00 0.03 0.03 92 1024.5
20260830175717 66 247 0.0 0.0 0.00 0.03 0.03 92 1024.5
20260830173720 66 247 0.0 0.0 0.00 0.03 0.03 93 1024.4
20260830172817 66 247 0.0 1.0 0.00 0.03 0.03 92 1024.4
20260830171817 66 247 0.0 0.0 0.00 0.03 0.03 92 1024.4
20260830170819 66 270 2.0 4.0 0.00 0.03 0.03 93 1024.4
20260830170717 66 261 2.0 3.0 0.00 0.03 0.03 93 1024.4
20260830163817 65 281 3.0 4.0 0.03 0.03 0.03 91 1024.4
20260830162819 65 247 3.0 3.0 0.03 0.03 0.03 90 1024.6
20260830161820 65 292 0.0 1.0 0.03 0.03 0.03 89 1024.6
20260830161718 65 292 1.0 3.0 0.03 0.03 0.03 89 1024.8
20260830160718 65 270 1.0 1.0 0.03 0.03 0.03 87 1024.7
20260830155719 66 292 3.0 3.0 0.01 0.01 0.01 85 1024.9
20260830154717 66 281 4.0 4.0 0.00 0.00 0.00 83 1024.6
20260830153718 66 258 2.0 4.0 0.00 0.00 0.00 81 1024.8
20260830152733 66 262 4.0 6.0 0.00 0.00 0.00 82 1024.7